Weather Roundup
Issued by NWS Chicago, IL

Home | Current Version | Previous Version | Graphics & Text | Print | Product List | Glossary Off
Versions: 1 2 3 4 5 6 7 8 9 10 11 12 13 14 15 16 17 18 19 20 21 22 23 24 25 26 27 28 29 30 31 32 33 34 35 36 37 38 39 40 41 42 43 44 45 46 47 48 49 50

000
NZUS59 KLOT 230310
HRRLOT

CHICAGO AREA WEATHER ROUNDUP
NATIONAL WEATHER SERVICE CHICAGO/ROMEOVILLE IL
900 PM CST MON DEC 22 2014

NOTE: "FAIR" INDICATES FEW OR NO CLOUDS BELOW 12,000 FEET WITH NO
SIGNIFICANT WEATHER AND/OR OBSTRUCTIONS TO VISIBILITY.

* THESE STATIONS ARE NOT UNDER NWS QUALITY CONTROL. THEY ALSO MAY NOT
  REPORT WEATHER SUCH AS PRECIPITATION OR FOG.

ILZ005-006-012>014-019>023-230400-
NORTHEAST ILLINOIS

CITY           SKY/WX    TMP DP  RH WIND       PRES   REMARKS
OHARE          LGT RAIN  41  39  93 SE15      29.63F FOG
MIDWAY         DRIZZLE   43  40  89 SE16G25   29.65S FOG
AURORA         LGT RAIN  42  39  89 SE13      29.62F FOG
LANSING*       LGT RAIN  41  39  93 SE13G20   29.65F
JOLIET*        RAIN      41  39  95 SE12      29.62F
WAUKEGAN       LGT RAIN  38  37  97 SE15      29.65F FOG
DUPAGE AIRPORT LGT RAIN  42  40  92 SE14      29.62S FOG
WHEELING       LGT RAIN  40  38  93 SE12      29.66F FOG
KANKAKEE*      DRIZZLE   40  39  97 E15       29.63F
MORRIS*        LGT RAIN  42  42  99 SE14      29.60F
LEWIS AIRPORT* DRIZZLE   41  41  99 SE13      29.62F
NORTHERLY IS     N/A     38  36  92 SE10        N/A
$$

WIZ051-052-058>065-066-070>072-230400-
SOUTHEAST WISCONSIN

CITY           SKY/WX    TMP DP  RH WIND       PRES   REMARKS
MILWAUKEE      LGT RAIN  39  37  92 SE17G24   29.68F FOG
KENOSHA*       LGT RAIN  40  38  93 SE14      29.66F FOG
RACINE*        LGT RAIN  40  38  93 SE12      29.69F FOG
BURLINGTON     MIX PCPN  37  37  99 SE10G18   29.64F
WAUKESHA       LGT RAIN  36  36 100 SE12      29.66S
WEST BEND      LGT RAIN  37  36  93 E13G20    29.67F
$$

INZ001>003-010>013-019-020-230400-
NORTHWEST INDIANA

CITY           SKY/WX    TMP DP  RH WIND       PRES   REMARKS
GARY*          DRIZZLE   42  37  80 SE13G22   29.66S
MICHIGAN CITY* NOT AVBL
RENSSELAER*    NOT AVBL
VALPARAISO     LGT RAIN  39  38  96 E12       29.68F FOG
$$

LMZ740>746-230400-
SOUTHERN LAKE MICHIGAN

STATION/POSITION TIME  SKY/WX   TEMP WIND        PRES    VSBY
                                AIR  DIR/SP/G
                 (UTC)          (F)  (DEG/KT/KT) (MB)    (MI)
HARRISON CRIB    0300            39  130/ 16/ 19   N/A
BURNHAM HARBOR   0300            38  120/  8/ 11   N/A
CALUMET HARBOR   0300            41  110/ 12/ 17 1003.2F
BURNS HARBOR     NOT AVBL
MICHIGAN CITY    NOT AVBL
$$

ABBREVIATIONS USED IN REMARKS
   TC - TEMPERATURE IN CELSIUS
  WCI - WIND CHILL INDEX
   HX - HEAT INDEX
  VSB - VISIBILITY
$$



USA.gov is the U.S. government's official web portal to all federal, state and local government web resources and services.